Location: Melizzano
(41.1500°N, 14.5000°E)
Time: 08:24:31
(UTC+00:00)

Cosmos 2084 - Pass Details

Date: 11 May 2021
Orbit: 542 x 640 km, 62.8° (Epoch: 20 June)

Event Time Altitude Azimuth Distance (km) Brightness Sun altitude
Rises 20:00:04 0° 230° (SW) 2,701 6.9 -17.8°
Reaches altitude 10° 20:02:19 10° 237° (WSW) 1,820 6.1 -18.1°
Maximum altitude 20:06:15 45° 310° (NW) 769 4.5 -18.6°
Drops below altitude 10° 20:10:19 10° 25° (NNE) 1,877 6.3 -19.1°
Sets 20:12:40 0° 31° (NNE) 2,796 7.1 -19.4°
